Fernie, Canada 16 day weather forecast

Slopes altitude range 1065 m - 1925m

Number of lifts: 9 Pistes: -1km

In some cases the lift and piste totals shown are for the ski domain (e.g. Three Valleys) rather than individual resort (e.g. Courchevel)

Overview

The 16 day weather forecast is fully updated 4 times every day.

    • Wed 21 NOV 2018
    • Wed 21
    • -8C -7C
    • Thu 22 NOV 2018
    • Thu 22
    • -6C -5C
    • Fri 23 NOV 2018
    • Fri 23
    • -4C -3C
    • Sat 24 NOV 2018
    • Sat 24
    • -8C -6C
    • Sun 25 NOV 2018
    • Sun 25
    • -6C -5C
    • Mon 26 NOV 2018
    • Mon 26
    • -6C -4C
    • Tue 27 NOV 2018
    • Tue 27
    • -3C -2C
    • Wed 28 NOV 2018
    • Wed 28
    • -4C -2C
    • Thu 29 NOV 2018
    • Thu 29
    • -4C -3C
    • Fri 30 NOV 2018
    • Fri 30
    • -6C -5C
    • Sat 01 DEC 2018
    • Sat 01
    • -10C -7C
    • Sun 02 DEC 2018
    • Sun 02
    • -11C -8C
    • Mon 03 DEC 2018
    • Mon 03
    • -12C -10C
    • Tue 04 DEC 2018
    • Tue 04
    • -15C -9C
    • Wed 05 DEC 2018
    • Wed 05
    • -13C -10C
    • Thu 06 DEC 2018
    • Thu 06
    • -12C -8C

Date:

Time Type 0°C level Temp Chill Snow Cloud Speed Gust Dir Press
12:00 417m -7°C -7_1 0cm 82% 1mph 2mph 1019mB
15:00 433m -8°C -8_1 0cm 100% 1mph 2mph 1017mB
18:00 1418m -1°C -1_2 0cm 100% 2mph 4mph 1014mB
21:00 1700m -1°C -1_4 0cm 95% 4mph 8mph 1010mB
0:00 1041m -4°C -4_4 0cm 88% 4mph 5mph 1011mB
3:00 824m -5°C -5_4 0cm 10% 4mph 5mph 1011mB
6:00 722m -6°C -6_3 0cm 7% 3mph 4mph 1010mB
9:00 630m -6°C -6_2 0cm 3% 2mph 3mph 1009mB
12:00 875m -5°C -5_2 0cm 50% 2mph 3mph 1008mB
15:00 931m -4°C -4_2 0cm 97% 2mph 5mph 1007mB
18:00 1447m -1°C -1_5 1cm 97% 5mph 10mph 1005mB
21:00 1636m -1°C -1_6 1cm 99% 6mph 15mph 1003mB
0:00 1390m -2°C -2_5 1cm 99% 5mph 15mph 1003mB
3:00 1222m -3°C -3_7 1cm 91% 7mph 16mph 1004mB
6:00 998m -4°C -4_3 1cm 96% 3mph 3mph 1004mB
9:00 1065m -4°C -4_1 1cm 100% 1mph 0mph 1004mB
12:00 1096m -3°C -3_2 2cm 100% 2mph 4mph 1004mB
15:00 1175m -3°C -3_6 1cm 100% 6mph 12mph 1005mB
18:00 1283m -2°C -2_6 2cm 100% 6mph 12mph 1004mB
21:00 1356m -2°C -2_5 1cm 99% 5mph 9mph 1001mB
0:00 754m -6°C -6_2 1cm 83% 2mph 2mph 1001mB
3:00 607m -7°C -7_2 0cm 68% 2mph 3mph 1002mB
6:00 558m -7°C -7_3 0cm 84% 3mph 3mph 1005mB
9:00 683m -6°C -6_3 1cm 100% 3mph 4mph 1009mB
12:00 413m -6°C -6_3 1cm 89% 3mph 3mph 1014mB
15:00 301m -8°C -8_1 0cm 25% 1mph 2mph 1018mB
18:00 1040m -4°C -4_3 0cm 19% 3mph 4mph 1019mB
21:00 1262m -4°C -4_5 0cm 4% 5mph 8mph 1018mB
0:00 775m -5°C -5_4 0cm 28% 4mph 4mph 1020mB
3:00 848m -5°C -5_4 1cm 100% 4mph 8mph 1021mB
6:00 825m -5°C -5_4 1cm 100% 4mph 9mph 1021mB
9:00 776m -6°C -6_4 1cm 100% 4mph 8mph 1021mB
12:00 746m -5°C -5_3 1cm 100% 3mph 5mph 1022mB
15:00 663m -6°C -6_2 1cm 100% 2mph 3mph 1022mB
18:00 1066m -4°C -4_2 1cm 99% 2mph 4mph 1023mB
21:00 1228m -4°C -4_3 0cm 99% 3mph 5mph 1023mB
0:00 983m -4°C -4_3 0cm 100% 3mph 3mph 1025mB
3:00 876m -5°C -5_1 0cm 100% 1mph 2mph 1027mB
6:00 729m -6°C -6_2 0cm 99% 2mph 3mph 1027mB
9:00 919m -6°C -6_3 1cm 100% 3mph 5mph 1028mB
12:00 914m -4°C -4_4 1cm 100% 4mph 6mph 1027mB
15:00 831m -5°C -5_3 1cm 100% 3mph 5mph 1027mB
18:00 1103m -3°C -3_4 1cm 100% 4mph 7mph 1025mB
21:00 1291m -3°C -3_4 1cm 100% 4mph 8mph 1022mB
0:00 1104m -3°C -3_3 1cm 100% 3mph 5mph 1022mB
3:00 1121m -4°C -4_3 1cm 100% 3mph 5mph 1021mB
6:00 1227m -4°C -4_4 1cm 100% 4mph 7mph 1019mB
9:00 1255m -3°C -3_4 1cm 100% 4mph 8mph 1016mB
12:00 1352m -2°C -2_6 1cm 100% 6mph 12mph 1014mB
15:00 1361m -2°C -2_5 1cm 100% 5mph 10mph 1012mB
18:00 1445m -1°C -1_5 1cm 100% 5mph 10mph 1009mB
21:00 1604m -1°C -1_8 1cm 100% 8mph 19mph 1007mB
0:00 1470m -1°C -1_5 1cm 100% 5mph 10mph 1008mB
3:00 1368m -2°C -2_5 1cm 99% 5mph 9mph 1010mB
6:00 1321m -2°C -2_4 1cm 100% 4mph 7mph 1012mB
9:00 1267m -2°C -2_4 1cm 99% 4mph 7mph 1014mB
12:00 1004m -2°C -2_2 1cm 99% 2mph 3mph 1013mB
15:00 841m -4°C -4_2 0cm 100% 2mph 3mph 1011mB
18:00 1195m -3°C -3_3 0cm 99% 3mph 5mph 1006mB
21:00 1579m -3°C -3_3 0cm 97% 3mph 6mph 1000mB
0:00 1334m -3°C -3_3 1cm 98% 3mph 4mph 998mB
3:00 1375m -3°C -3_5 1cm 98% 5mph 9mph 997mB
6:00 1326m -4°C -4_4 1cm 88% 4mph 6mph 996mB
9:00 1277m -4°C -4_5 0cm 75% 5mph 6mph 996mB
12:00 1225m -3°C -3_4 0cm 66% 4mph 5mph 997mB
15:00 1118m -4°C -4_5 0cm 71% 5mph 6mph 999mB
18:00 1548m -2°C -2_5 0cm 81% 5mph 9mph 1000mB
21:00 1554m -2°C -2_4 1cm 99% 4mph 7mph 999mB
0:00 1182m -4°C -4_4 1cm 91% 4mph 6mph 1000mB
3:00 1196m -5°C -5_3 1cm 96% 3mph 3mph 1000mB
6:00 1061m -5°C -5_3 1cm 96% 3mph 3mph 1001mB
9:00 1001m -6°C -6_3 0cm 86% 3mph 3mph 1001mB
12:00 969m -5°C -5_2 1cm 85% 2mph 3mph 1001mB
15:00 934m -6°C -6_3 1cm 95% 3mph 3mph 1002mB
18:00 1192m -4°C -4_3 1cm 96% 3mph 4mph 1002mB
21:00 1385m -4°C -4_4 1cm 80% 4mph 5mph 1002mB
0:00 897m -6°C -6_3 1cm 81% 3mph 3mph 1003mB
3:00 708m -7°C -7_3 0cm 87% 3mph 3mph 1006mB
6:00 546m -8°C -8_3 0cm 81% 3mph 3mph 1007mB
Afternoon 0.00520833mm 0 849m -7°C -7_3 1cm 100% 3mph 4mph 1011mB
Morning 0.166667mm 0 324m -11°C -11_3 1cm 100% 3mph 4mph 1016mB
Afternoon 0.197917mm 0 745m -8°C -8_5 0cm 100% 5mph 8mph 1019mB
Morning 0.270833mm 0.0625 441m -10°C -10_5 2cm 100% 5mph 7mph 1021mB
Afternoon 0.0104167mm 0 457m -10°C -10_4 1cm 100% 4mph 7mph 1018mB
Morning 0.484375mm 0 0m -14°C -14_4 0cm 9% 4mph 5mph 1017mB
Afternoon 0.328125mm 0 539m -9°C -9_1 3cm 66% 1mph 2mph 1021mB
Morning 0.0572917mm 0 58m -13°C -13_6 0cm 86% 6mph 11mph 1020mB
Afternoon 0.0833333mm 0 426m -10°C -10_8 1cm 100% 8mph 12mph 1011mB
Morning 0.885417mm 0 371m -11°C -11_6 7cm 100% 6mph 9mph 1020mB
Afternoon 0.807292mm 0 672m -8°C -8_9 6cm 100% 9mph 17mph 1020mB
Morning 0.411458mm 0 783m -9°C -9_9 3cm 100% 9mph 17mph 1013mB

16 day outlook at a glance

Forecast issued: 21/11/2018 13:40:15

Chat

Your comments and questions. In a resort? Let us know what it's like!


Characters left 250

For terms and conditions see Readers Comments on the Cookie and privacy policy page.